M I D A S
Marine Information and Data Acquisition System
Tripno 314 of the Zeeleeuw from 2002-02-28 07:05:00 to 2002-02-28 17:03:23
Back to CruiseResearch ActivitiesStationsMapUnderway DataData graphs

EquipmentUnitsComment
TimeDGPSUTC
LatitudeDGPSDM.mWGS84
LongitudeDGPSDM.mWGS84
TemperatureSBE03/SBE38deg celciusITS90
ConductivitySBE21S/mITS90
SalinitySBE21 Practical Salinity Units
ChlorophylAChelsea fluorimeterg/lCalibrated in Aceton
Missing or incorrect values are displayed as -999
Sea surface data collected by the RV Zeeleeuw from 2002-02-28 07:05:00 to 2002-02-28 17:03:23
Time Latitude Longitude Temperature Conductivity Salinity ChlorophylA
2002-02-28 07:06:02 51°13.689 2°55.899 -999 -999 -999  
2002-02-28 07:07:03 51°13.706 2°55.807 -999 -999 -999  
2002-02-28 07:08:02 51°13.715 2°55.726 -999 -999 -999  
2002-02-28 07:09:02 51°13.747 2°55.698 -999 -999 -999  
2002-02-28 07:10:02 51°13.882 2°55.594 -999 -999 -999  
2002-02-28 07:11:01 51°14.036 2°55.481 -999 -999 -999  
2002-02-28 07:12:02 51°14.158 2°55.386 -999 -999 -999  
2002-02-28 07:13:02 51°14.272 2°55.246 -999 -999 -999  
2002-02-28 07:14:02 51°14.371 2°55.065 -999 -999 -999  
2002-02-28 07:15:01 51°14.477 2°54.845 -999 -999 -999  
2002-02-28 07:16:02 51°14.583 2°54.573 -999 -999 -999  
2002-02-28 07:17:02 51°14.711 2°54.288 -999 -999 -999  
2002-02-28 07:18:02 51°14.89 2°54.08 -999 -999 -999  
2002-02-28 07:19:02 51°15.082 2°53.923 -999 -999 -999  
2002-02-28 07:20:02 51°15.27 2°53.743 -999 -999 -999  
2002-02-28 07:21:02 51°15.473 2°53.592 -999 -999 -999  
2002-02-28 07:22:02 51°15.681 2°53.444 -999 -999 -999  
2002-02-28 07:23:02 51°15.886 2°53.292 -999 -999 -999  
2002-02-28 07:24:02 51°16.088 2°53.139 -999 -999 -999  
2002-02-28 07:25:02 51°16.293 2°53.004 -999 -999 -999  
2002-02-28 07:26:02 51°16.498 2°52.869 -999 -999 -999  
2002-02-28 07:27:02 51°16.701 2°52.737 -999 -999 -999  
2002-02-28 07:28:02 51°16.901 2°52.616 -999 -999 -999  
2002-02-28 07:29:02 51°17.1 2°52.493 -999 -999 -999  
2002-02-28 07:30:02 51°17.301 2°52.368 -999 -999 -999  
2002-02-28 07:31:02 51°17.491 2°52.195 -999 -999 -999  
2002-02-28 07:32:02 51°17.671 2°51.996 -999 -999 -999  
2002-02-28 07:33:02 51°17.843 2°51.788 -999 -999 -999  
2002-02-28 07:34:02 51°17.946 2°51.483 -999 -999 -999  
2002-02-28 07:35:02 51°18.037 2°51.157 -999 -999 -999  
2002-02-28 07:36:01 51°18.116 2°50.828 -999 -999 -999  
2002-02-28 07:37:02 51°18.186 2°50.481 -999 -999 -999  
2002-02-28 07:38:02 51°18.255 2°50.168 -999 -999 -999  
2002-02-28 07:39:02 51°18.282 2°49.993 -999 -999 -999  
2002-02-28 07:40:02 51°18.29 2°49.892 -999 -999 -999  
2002-02-28 07:41:02 51°18.286 2°49.836 -999 -999 -999  
2002-02-28 07:42:02 51°18.289 2°49.836 -999 -999 -999  
2002-02-28 07:43:02 51°18.284 2°49.845 -999 -999 -999  
2002-02-28 07:44:02 51°18.281 2°49.849 -999 -999 -999  
2002-02-28 07:45:02 51°18.28 2°49.851 -999 -999 -999  
2002-02-28 07:46:02 51°18.278 2°49.853 -999 -999 -999  
2002-02-28 07:47:02 51°18.27 2°49.864 -999 -999 -999  
2002-02-28 07:48:02 51°18.271 2°49.862 -999 -999 -999  
2002-02-28 07:49:02 51°18.272 2°49.859 -999 -999 -999  
2002-02-28 07:50:02 51°18.274 2°49.856 -999 -999 -999  
2002-02-28 07:51:02 51°18.276 2°49.854 -999 -999 -999  
2002-02-28 07:52:02 51°18.276 2°49.853 -999 -999 -999  
2002-02-28 07:53:02 51°18.276 2°49.851 -999 -999 -999  
2002-02-28 07:54:02 51°18.277 2°49.85 -999 -999 -999  
2002-02-28 07:55:02 51°18.277 2°49.848 -999 -999 -999  
2002-02-28 07:56:02 51°18.276 2°49.847 -999 -999 -999  
2002-02-28 07:57:02 51°18.276 2°49.843 -999 -999 -999  
2002-02-28 07:58:01 51°18.277 2°49.841 -999 -999 -999  
2002-02-28 07:59:02 51°18.278 2°49.839 -999 -999 -999  
2002-02-28 08:00:02 51°18.278 2°49.836 -999 -999 -999  
2002-02-28 08:01:02 51°18.276 2°49.836 -999 -999 -999  
2002-02-28 08:02:02 51°18.273 2°49.838 -999 -999 -999  
2002-02-28 08:03:02 51°18.272 2°49.838 -999 -999 -999  
2002-02-28 08:04:02 51°18.271 2°49.835 -999 -999 -999  
2002-02-28 08:05:02 51°18.27 2°49.832 -999 -999 -999  
2002-02-28 08:06:02 51°18.272 2°49.828 -999 -999 -999  
2002-02-28 08:07:02 51°18.274 2°49.823 -999 -999 -999  
2002-02-28 08:08:02 51°18.276 2°49.821 -999 -999 -999  
2002-02-28 08:09:02 51°18.275 2°49.822 -999 -999 -999  
2002-02-28 08:10:02 51°18.273 2°49.828 -999 -999 -999  
2002-02-28 08:11:02 51°18.271 2°49.83 -999 -999 -999  
2002-02-28 08:12:02 51°18.271 2°49.827 -999 -999 -999  
2002-02-28 08:13:02 51°18.272 2°49.822 -999 -999 -999  
2002-02-28 08:14:02 51°18.273 2°49.821 -999 -999 -999  
2002-02-28 08:15:02 51°18.274 2°49.82 -999 -999 -999  
2002-02-28 08:16:02 51°18.271 2°49.82 -999 -999 -999  
2002-02-28 08:17:02 51°18.271 2°49.823 -999 -999 -999  
2002-02-28 08:18:02 51°18.271 2°49.823 -999 -999 -999  
2002-02-28 08:19:02 51°18.271 2°49.818 -999 -999 -999  
2002-02-28 08:20:02 51°18.273 2°49.815 -999 -999 -999  
2002-02-28 08:21:02 51°18.274 2°49.814 -999 -999 -999  
2002-02-28 08:22:02 51°18.274 2°49.815 -999 -999 -999  
2002-02-28 08:23:02 51°18.271 2°49.814 -999 -999 -999  
2002-02-28 08:24:02 51°18.271 2°49.814 -999 -999 -999  
2002-02-28 08:25:02 51°18.271 2°49.812 -999 -999 -999  
2002-02-28 08:26:02 51°18.272 2°49.809 -999 -999 -999  
2002-02-28 08:27:02 51°18.272 2°49.807 -999 -999 -999  
2002-02-28 08:28:02 51°18.272 2°49.806 -999 -999 -999  
2002-02-28 08:29:02 51°18.271 2°49.804 -999 -999 -999  
2002-02-28 08:30:02 51°18.27 2°49.804 -999 -999 -999  
2002-02-28 08:31:02 51°18.269 2°49.807 -999 -999 -999  
2002-02-28 08:32:02 51°18.268 2°49.807 -999 -999 -999  
2002-02-28 08:33:02 51°18.268 2°49.805 -999 -999 -999  
2002-02-28 08:34:02 51°18.267 2°49.802 -999 -999 -999  
2002-02-28 08:35:02 51°18.267 2°49.802 -999 -999 -999  
2002-02-28 08:36:02 51°18.266 2°49.802 -999 -999 -999  
2002-02-28 08:37:02 51°18.266 2°49.8 -999 -999 -999  
2002-02-28 08:38:02 51°18.266 2°49.797 -999 -999 -999  
2002-02-28 08:39:02 51°18.265 2°49.797 -999 -999 -999  
2002-02-28 08:40:02 51°18.264 2°49.795 -999 -999 -999  
2002-02-28 08:41:02 51°18.264 2°49.796 -999 -999 -999  
2002-02-28 08:42:02 51°18.263 2°49.797 -999 -999 -999  
2002-02-28 08:43:02 51°18.263 2°49.795 -999 -999 -999  
2002-02-28 08:44:02 51°18.265 2°49.796 -999 -999 -999  
2002-02-28 08:45:02 51°18.265 2°49.795 -999 -999 -999  
2002-02-28 08:46:02 51°18.266 2°49.793 -999 -999 -999  
2002-02-28 08:47:02 51°18.266 2°49.796 -999 -999 -999  
2002-02-28 08:48:02 51°18.265 2°49.799 -999 -999 -999  
2002-02-28 08:49:02 51°18.264 2°49.801 -999 -999 -999  
2002-02-28 08:50:02 51°18.261 2°49.805 -999 -999 -999  
2002-02-28 08:51:02 51°18.261 2°49.805 -999 -999 -999  
2002-02-28 08:52:02 51°18.26 2°49.805 -999 -999 -999  
2002-02-28 08:53:02 51°18.261 2°49.804 -999 -999 -999  
2002-02-28 08:54:02 51°18.261 2°49.803 -999 -999 -999  
2002-02-28 08:55:02 51°18.262 2°49.802 -999 -999 -999  
2002-02-28 08:56:02 51°18.263 2°49.802 -999 -999 -999  
2002-02-28 08:57:02 51°18.262 2°49.804 -999 -999 -999  
2002-02-28 08:58:02 51°18.263 2°49.805 -999 -999 -999  
2002-02-28 08:59:02 51°18.26 2°49.809 -999 -999 -999  
2002-02-28 09:00:02 51°18.257 2°49.81 -999 -999 -999  
2002-02-28 09:01:02 51°18.26 2°49.806 -999 -999 -999  
2002-02-28 09:02:02 51°18.263 2°49.8 -999 -999 -999  
2002-02-28 09:03:02 51°18.265 2°49.797 -999 -999 -999  
2002-02-28 09:04:02 51°18.265 2°49.799 -999 -999 -999  
2002-02-28 09:05:02 51°18.262 2°49.803 -999 -999 -999  
2002-02-28 09:06:02 51°18.26 2°49.806 -999 -999 -999  
2002-02-28 09:07:02 51°18.261 2°49.807 -999 -999 -999  
2002-02-28 09:08:02 51°18.261 2°49.806 -999 -999 -999  
2002-02-28 09:09:02 51°18.261 2°49.805 -999 -999 -999  
2002-02-28 09:10:02 51°18.261 2°49.804 -999 -999 -999  
2002-02-28 09:11:02 51°18.261 2°49.803 -999 -999 -999  
2002-02-28 09:12:02 51°18.26 2°49.804 -999 -999 -999  
2002-02-28 09:13:02 51°18.26 2°49.805 -999 -999 -999  
2002-02-28 09:14:02 51°18.261 2°49.804 -999 -999 -999  
2002-02-28 09:15:02 51°18.263 2°49.799 -999 -999 -999  
2002-02-28 09:16:02 51°18.265 2°49.797 -999 -999 -999  
2002-02-28 09:17:02 51°18.267 2°49.796 -999 -999 -999  
2002-02-28 09:18:02 51°18.268 2°49.794 -999 -999 -999  
2002-02-28 09:19:02 51°18.268 2°49.798 -999 -999 -999  
2002-02-28 09:20:02 51°18.266 2°49.803 -999 -999 -999  
2002-02-28 09:21:02 51°18.263 2°49.811 -999 -999 -999  
2002-02-28 09:22:02 51°18.261 2°49.815 -999 -999 -999  
2002-02-28 09:23:02 51°18.26 2°49.816 -999 -999 -999  
2002-02-28 09:24:02 51°18.261 2°49.816 -999 -999 -999  
2002-02-28 09:25:02 51°18.262 2°49.817 -999 -999 -999  
2002-02-28 09:26:02 51°18.262 2°49.818 -999 -999 -999  
2002-02-28 09:27:02 51°18.262 2°49.818 -999 -999 -999  
2002-02-28 09:28:02 51°18.263 2°49.819 -999 -999 -999  
2002-02-28 09:29:02 51°18.263 2°49.823 -999 -999 -999  
2002-02-28 09:30:02 51°18.261 2°49.829 -999 -999 -999  
2002-02-28 09:31:02 51°18.261 2°49.827 -999 -999 -999  
2002-02-28 09:32:02 51°18.262 2°49.828 -999 -999 -999  
2002-02-28 09:33:02 51°18.262 2°49.83 -999 -999 -999  
2002-02-28 09:34:02 51°18.261 2°49.833 -999 -999 -999  
2002-02-28 09:35:02 51°18.261 2°49.832 -999 -999 -999  
2002-02-28 09:36:02 51°18.261 2°49.835 -999 -999 -999  
2002-02-28 09:37:02 51°18.26 2°49.837 -999 -999 -999  
2002-02-28 09:38:02 51°18.262 2°49.836 -999 -999 -999  
2002-02-28 09:39:02 51°18.264 2°49.837 -999 -999 -999  
2002-02-28 09:40:02 51°18.263 2°49.839 -999 -999 -999  
2002-02-28 09:41:02 51°18.262 2°49.839 -999 -999 -999  
2002-02-28 09:42:02 51°18.263 2°49.839 -999 -999 -999  
2002-02-28 09:43:02 51°18.263 2°49.84 -999 -999 -999  
2002-02-28 09:44:02 51°18.264 2°49.841 -999 -999 -999  
2002-02-28 09:45:02 51°18.264 2°49.841 -999 -999 -999  
2002-02-28 09:46:02 51°18.266 2°49.842 -999 -999 -999  
2002-02-28 09:47:02 51°18.268 2°49.843 -999 -999 -999  
2002-02-28 09:48:02 51°18.27 2°49.845 -999 -999 -999  
2002-02-28 09:49:02 51°18.271 2°49.849 -999 -999 -999  
2002-02-28 09:50:02 51°18.272 2°49.855 -999 -999 -999  
2002-02-28 09:51:02 51°18.274 2°49.86 -999 -999 -999  
2002-02-28 09:52:02 51°18.276 2°49.862 -999 -999 -999  
2002-02-28 09:53:02 51°18.277 2°49.866 -999 -999 -999  
2002-02-28 09:54:02 51°18.278 2°49.869 -999 -999 -999  
2002-02-28 09:55:02 51°18.278 2°49.871 -999 -999 -999  
2002-02-28 09:56:02 51°18.282 2°49.873 -999 -999 -999  
2002-02-28 09:57:02 51°18.284 2°49.874 -999 -999 -999  
2002-02-28 09:58:02 51°18.285 2°49.876 -999 -999 -999  
2002-02-28 09:59:02 51°18.287 2°49.878 -999 -999 -999  
2002-02-28 10:00:02 51°18.29 2°49.881 -999 -999 -999  
2002-02-28 10:01:02 51°18.291 2°49.88 -999 -999 -999  
2002-02-28 10:02:02 51°18.294 2°49.88 -999 -999 -999  
2002-02-28 10:03:02 51°18.297 2°49.88 -999 -999 -999  
2002-02-28 10:04:02 51°18.299 2°49.881 -999 -999 -999  
2002-02-28 10:05:02 51°18.301 2°49.878 -999 -999 -999  
2002-02-28 10:06:02 51°18.304 2°49.876 -999 -999 -999  
2002-02-28 10:07:02 51°18.305 2°49.876 -999 -999 -999  
2002-02-28 10:08:02 51°18.305 2°49.876 -999 -999 -999  
2002-02-28 10:09:02 51°18.307 2°49.873 -999 -999 -999  
2002-02-28 10:10:02 51°18.31 2°49.871 -999 -999 -999  
2002-02-28 10:11:02 51°18.31 2°49.874 -999 -999 -999  
2002-02-28 10:12:02 51°18.31 2°49.874 -999 -999 -999  
2002-02-28 10:13:02 51°18.312 2°49.872 -999 -999 -999  
2002-02-28 10:14:02 51°18.313 2°49.873 -999 -999 -999  
2002-02-28 10:15:02 51°18.312 2°49.872 -999 -999 -999  
2002-02-28 10:16:02 51°18.314 2°49.87 -999 -999 -999  
2002-02-28 10:17:02 51°18.315 2°49.869 -999 -999 -999  
2002-02-28 10:18:02 51°18.315 2°49.868 -999 -999 -999  
2002-02-28 10:19:02 51°18.316 2°49.869 -999 -999 -999  
2002-02-28 10:20:02 51°18.316 2°49.868 -999 -999 -999  
2002-02-28 10:21:02 51°18.317 2°49.867 -999 -999 -999  
2002-02-28 10:22:02 51°18.318 2°49.866 -999 -999 -999  
2002-02-28 10:23:02 51°18.319 2°49.865 -999 -999 -999  
2002-02-28 10:24:02 51°18.318 2°49.866 -999 -999 -999  
2002-02-28 10:25:02 51°18.318 2°49.866 -999 -999 -999  
2002-02-28 10:26:02 51°18.319 2°49.866 -999 -999 -999  
2002-02-28 10:27:02 51°18.32 2°49.863 -999 -999 -999  
2002-02-28 10:28:02 51°18.321 2°49.861 -999 -999 -999  
2002-02-28 10:29:02 51°18.321 2°49.858 -999 -999 -999  
2002-02-28 10:30:02 51°18.322 2°49.857 -999 -999 -999  
2002-02-28 10:31:02 51°18.322 2°49.858 -999 -999 -999  
2002-02-28 10:32:02 51°18.323 2°49.858 -999 -999 -999  
2002-02-28 10:33:02 51°18.322 2°49.863 -999 -999 -999  
2002-02-28 10:34:02 51°18.321 2°49.866 -999 -999 -999  
2002-02-28 10:35:02 51°18.319 2°49.866 -999 -999 -999  
2002-02-28 10:36:02 51°18.317 2°49.874 -999 -999 -999  
2002-02-28 10:37:02 51°18.313 2°49.878 -999 -999 -999  
2002-02-28 10:38:02 51°18.312 2°49.878 -999 -999 -999  
2002-02-28 10:39:02 51°18.314 2°49.873 -999 -999 -999  
2002-02-28 10:40:02 51°18.314 2°49.872 -999 -999 -999  
2002-02-28 10:41:02 51°18.313 2°49.877 -999 -999 -999  
2002-02-28 10:42:02 51°18.309 2°49.881 -999 -999 -999  
2002-02-28 10:43:02 51°18.305 2°49.884 -999 -999 -999  
2002-02-28 10:44:02 51°18.305 2°49.884 -999 -999 -999  
2002-02-28 10:45:02 51°18.306 2°49.882 -999 -999 -999  
2002-02-28 10:46:02 51°18.309 2°49.881 -999 -999 -999  
2002-02-28 10:47:02 51°18.307 2°49.883 -999 -999 -999  
2002-02-28 10:48:02 51°18.303 2°49.886 -999 -999 -999  
2002-02-28 10:49:02 51°18.3 2°49.887 -999 -999 -999  
2002-02-28 10:50:02 51°18.302 2°49.886 -999 -999 -999  
2002-02-28 10:51:02 51°18.303 2°49.884 -999 -999 -999  
2002-02-28 10:52:02 51°18.304 2°49.884 -999 -999 -999  
2002-02-28 10:53:02 51°18.305 2°49.884 -999 -999 -999  
2002-02-28 10:54:02 51°18.305 2°49.886 -999 -999 -999  
2002-02-28 10:55:02 51°18.306 2°49.883 -999 -999 -999  
2002-02-28 10:56:02 51°18.307 2°49.883 -999 -999 -999  
2002-02-28 10:57:02 51°18.306 2°49.885 -999 -999 -999  
2002-02-28 10:58:02 51°18.308 2°49.883 -999 -999 -999  
2002-02-28 10:59:02 51°18.307 2°49.884 -999 -999 -999  
2002-02-28 11:00:02 51°18.305 2°49.885 -999 -999 -999  
2002-02-28 11:01:02 51°18.304 2°49.887 -999 -999 -999  
2002-02-28 11:02:02 51°18.306 2°49.885 -999 -999 -999  
2002-02-28 11:03:02 51°18.309 2°49.882 -999 -999 -999  
2002-02-28 11:04:02 51°18.309 2°49.882 -999 -999 -999  
2002-02-28 11:05:02 51°18.307 2°49.884 -999 -999 -999  
2002-02-28 11:06:02 51°18.306 2°49.884 -999 -999 -999  
2002-02-28 11:07:02 51°18.305 2°49.886 -999 -999 -999  
2002-02-28 11:08:02 51°18.307 2°49.884 -999 -999 -999  
2002-02-28 11:09:02 51°18.306 2°49.885 -999 -999 -999  
2002-02-28 11:10:02 51°18.306 2°49.886 -999 -999 -999  
2002-02-28 11:11:02 51°18.307 2°49.885 -999 -999 -999  
2002-02-28 11:12:02 51°18.308 2°49.883 -999 -999 -999  
2002-02-28 11:13:02 51°18.31 2°49.882 -999 -999 -999  
2002-02-28 11:14:02 51°18.31 2°49.882 -999 -999 -999  
2002-02-28 11:15:02 51°18.311 2°49.881 -999 -999 -999  
2002-02-28 11:16:02 51°18.31 2°49.882 -999 -999 -999  
2002-02-28 11:17:02 51°18.308 2°49.884 -999 -999 -999  
2002-02-28 11:18:02 51°18.306 2°49.884 -999 -999 -999  
2002-02-28 11:19:02 51°18.305 2°49.887 -999 -999 -999  
2002-02-28 11:20:02 51°18.306 2°49.887 -999 -999 -999  
2002-02-28 11:21:02 51°18.308 2°49.885 -999 -999 -999  
2002-02-28 11:22:02 51°18.309 2°49.885 -999 -999 -999  
2002-02-28 11:23:02 51°18.306 2°49.886 -999 -999 -999  
2002-02-28 11:24:02 51°18.304 2°49.888 -999 -999 -999  
2002-02-28 11:25:02 51°18.305 2°49.888 -999 -999 -999  
2002-02-28 11:26:02 51°18.307 2°49.887 -999 -999 -999  
2002-02-28 11:27:02 51°18.309 2°49.885 -999 -999 -999  
2002-02-28 11:28:02 51°18.309 2°49.885 -999 -999 -999  
2002-02-28 11:29:02 51°18.306 2°49.887 -999 -999 -999  
2002-02-28 11:30:02 51°18.306 2°49.888 -999 -999 -999  
2002-02-28 11:31:02 51°18.307 2°49.886 -999 -999 -999  
2002-02-28 11:32:02 51°18.308 2°49.886 -999 -999 -999  
2002-02-28 11:33:02 51°18.308 2°49.886 -999 -999 -999  
2002-02-28 11:34:02 51°18.308 2°49.886 -999 -999 -999  
2002-02-28 11:35:02 51°18.31 2°49.887 -999 -999 -999  
2002-02-28 11:36:02 51°18.31 2°49.888 -999 -999 -999  
2002-02-28 11:37:02 51°18.309 2°49.901 -999 -999 -999  
2002-02-28 11:38:02 51°18.311 2°49.901 -999 -999 -999  
2002-02-28 11:39:02 51°18.312 2°49.899 -999 -999 -999  
2002-02-28 11:40:02 51°18.314 2°49.899 -999 -999 -999  
2002-02-28 11:41:02 51°18.313 2°49.901 -999 -999 -999  
2002-02-28 11:42:02 51°18.312 2°49.902 -999 -999 -999  
2002-02-28 11:43:02 51°18.314 2°49.9 -999 -999 -999  
2002-02-28 11:44:02 51°18.313 2°49.902 -999 -999 -999  
2002-02-28 11:45:02 51°18.311 2°49.905 -999 -999 -999  
2002-02-28 11:46:02 51°18.313 2°49.903 -999 -999 -999  
2002-02-28 11:47:02 51°18.316 2°49.902 -999 -999 -999  
2002-02-28 11:48:02 51°18.316 2°49.902 -999 -999 -999  
2002-02-28 11:49:03 51°18.316 2°49.901 -999 -999 -999  
2002-02-28 11:50:02 51°18.316 2°49.902 -999 -999 -999  
2002-02-28 11:51:02 51°18.312 2°49.906 -999 -999 -999  
2002-02-28 11:52:02 51°18.313 2°49.903 -999 -999 -999  
2002-02-28 11:53:03 51°18.313 2°49.904 -999 -999 -999  
2002-02-28 11:54:02 51°18.31 2°49.905 -999 -999 -999  
2002-02-28 11:55:02 51°18.312 2°49.905 -999 -999 -999  
2002-02-28 11:56:02 51°18.314 2°49.903 -999 -999 -999  
2002-02-28 11:57:02 51°18.313 2°49.904 -999 -999 -999  
2002-02-28 11:58:02 51°18.313 2°49.904 -999 -999 -999  
2002-02-28 11:59:02 51°18.315 2°49.902 -999 -999 -999  
2002-02-28 12:00:02 51°18.315 2°49.903 -999 -999 -999  
2002-02-28 12:01:03 51°18.316 2°49.903 -999 -999 -999  
2002-02-28 12:02:02 51°18.314 2°49.907 -999 -999 -999  
2002-02-28 12:03:03 51°18.312 2°49.906 -999 -999 -999  
2002-02-28 12:04:02 51°18.315 2°49.903 -999 -999 -999  
2002-02-28 12:05:02 51°18.317 2°49.905 -999 -999 -999  
2002-02-28 12:06:02 51°18.315 2°49.907 -999 -999 -999  
2002-02-28 12:07:02 51°18.316 2°49.906 -999 -999 -999  
2002-02-28 12:08:03 51°18.318 2°49.905 -999 -999 -999  
2002-02-28 12:09:02 51°18.315 2°49.908 -999 -999 -999  
2002-02-28 12:10:02 51°18.315 2°49.913 -999 -999 -999  
2002-02-28 12:11:03 51°18.318 2°49.911 -999 -999 -999  
2002-02-28 12:12:02 51°18.318 2°49.913 -999 -999 -999  
2002-02-28 12:13:02 51°18.315 2°49.916 -999 -999 -999  
2002-02-28 12:14:02 51°18.315 2°49.915 -999 -999 -999  
2002-02-28 12:15:03 51°18.316 2°49.914 -999 -999 -999  
2002-02-28 12:16:02 51°18.315 2°49.914 -999 -999 -999  
2002-02-28 12:17:02 51°18.312 2°49.916 -999 -999 -999  
2002-02-28 12:18:03 51°18.316 2°49.913 -999 -999 -999  
2002-02-28 12:19:03 51°18.317 2°49.913 -999 -999 -999  
2002-02-28 12:20:02 51°18.317 2°49.915 -999 -999 -999  
2002-02-28 12:21:02 51°18.317 2°49.914 -999 -999 -999  
2002-02-28 12:22:03 51°18.316 2°49.913 -999 -999 -999  
2002-02-28 12:23:03 51°18.317 2°49.915 -999 -999 -999  
2002-02-28 12:24:02 51°18.318 2°49.914 -999 -999 -999  
2002-02-28 12:25:02 51°18.317 2°49.915 -999 -999 -999  
2002-02-28 12:26:02 51°18.314 2°49.917 -999 -999 -999  
2002-02-28 12:27:02 51°18.314 2°49.918 -999 -999 -999  
2002-02-28 12:28:03 51°18.317 2°49.918 -999 -999 -999  
2002-02-28 12:29:02 51°18.318 2°49.918 -999 -999 -999  
2002-02-28 12:30:03 51°18.318 2°49.917 -999 -999 -999  
2002-02-28 12:31:02 51°18.315 2°49.917 -999 -999 -999  
2002-02-28 12:32:02 51°18.314 2°49.921 -999 -999 -999  
2002-02-28 12:33:03 51°18.311 2°49.923 -999 -999 -999  
2002-02-28 12:34:03 51°18.313 2°49.919 -999 -999 -999  
2002-02-28 12:35:02 51°18.317 2°49.918 -999 -999 -999  
2002-02-28 12:36:03 51°18.317 2°49.919 -999 -999 -999  
2002-02-28 12:37:03 51°18.318 2°49.918 -999 -999 -999  
2002-02-28 12:38:02 51°18.318 2°49.919 -999 -999 -999  
2002-02-28 12:39:02 51°18.319 2°49.916 -999 -999 -999  
2002-02-28 12:40:03 51°18.32 2°49.919 -999 -999 -999  
2002-02-28 12:41:02 51°18.316 2°49.921 -999 -999 -999  
2002-02-28 12:42:02 51°18.315 2°49.92 -999 -999 -999  
2002-02-28 12:43:02 51°18.319 2°49.919 -999 -999 -999  
2002-02-28 12:44:02 51°18.321 2°49.92 -999 -999 -999  
2002-02-28 12:45:03 51°18.319 2°49.924 -999 -999 -999  
2002-02-28 12:46:02 51°18.319 2°49.93 -999 -999 -999  
2002-02-28 12:47:02 51°18.318 2°49.931 -999 -999 -999  
2002-02-28 12:48:03 51°18.322 2°49.927 -999 -999 -999  
2002-02-28 12:49:02 51°18.322 2°49.928 -999 -999 -999  
2002-02-28 12:50:02 51°18.315 2°49.923 -999 -999 -999  
2002-02-28 12:51:02 51°18.312 2°49.913 -999 -999 -999  
2002-02-28 12:52:02 51°18.309 2°49.897 -999 -999 -999  
2002-02-28 12:53:02 51°18.304 2°49.89 -999 -999 -999  
2002-02-28 12:54:02 51°18.305 2°49.887 -999 -999 -999  
2002-02-28 12:55:02 51°18.309 2°49.908 -999 -999 -999  
2002-02-28 12:56:03 51°18.318 2°49.952 -999 -999 -999  
2002-02-28 12:57:02 51°18.326 2°50.007 -999 -999 -999  
2002-02-28 12:58:03 51°18.275 2°50.178 -999 -999 -999  
2002-02-28 12:59:02 51°18.168 2°50.492 -999 -999 -999  
2002-02-28 13:00:02 51°18.057 2°50.826 -999 -999 -999  
2002-02-28 13:01:02 51°17.933 2°51.15 -999 -999 -999  
2002-02-28 13:02:02 51°17.808 2°51.465 -999 -999 -999  
2002-02-28 13:03:02 51°17.672 2°51.767 -999 -999 -999  
2002-02-28 13:04:02 51°17.532 2°52.059 -999 -999 -999  
2002-02-28 13:05:03 51°17.377 2°52.328 -999 -999 -999  
2002-02-28 13:06:02 51°17.223 2°52.582 -999 -999 -999  
2002-02-28 13:07:02 51°17.063 2°52.836 -999 -999 -999  
2002-02-28 13:08:02 51°16.909 2°53.107 -999 -999 -999  
2002-02-28 13:09:02 51°16.753 2°53.382 -999 -999 -999  
2002-02-28 13:10:02 51°16.602 2°53.669 -999 -999 -999  
2002-02-28 13:11:02 51°16.456 2°53.968 -999 -999 -999  
2002-02-28 13:12:03 51°16.306 2°54.269 -999 -999 -999  
2002-02-28 13:13:03 51°16.162 2°54.566 -999 -999 -999  
2002-02-28 13:14:03 51°16.011 2°54.845 -999 -999 -999  
2002-02-28 13:15:02 51°15.879 2°55.145 -999 -999 -999  
2002-02-28 13:16:02 51°15.832 2°55.5 -999 -999 -999  
2002-02-28 13:17:03 51°15.776 2°55.635 -999 -999 -999  
2002-02-28 13:18:02 51°15.748 2°55.614 -999 -999 -999  
2002-02-28 13:19:03 51°15.758 2°55.641 -999 -999 -999  
2002-02-28 13:20:02 51°15.77 2°55.678 -999 -999 -999  
2002-02-28 13:21:02 51°15.77 2°55.683 -999 -999 -999  
2002-02-28 13:22:03 51°15.769 2°55.685 -999 -999 -999  
2002-02-28 13:23:03 51°15.771 2°55.682 -999 -999 -999  
2002-02-28 13:24:03 51°15.774 2°55.679 -999 -999 -999  
2002-02-28 13:25:02 51°15.775 2°55.68 -999 -999 -999  
2002-02-28 13:26:02 51°15.771 2°55.684 -999 -999 -999  
2002-02-28 13:27:03 51°15.769 2°55.685 -999 -999 -999  
2002-02-28 13:28:03 51°15.77 2°55.684 -999 -999 -999  
2002-02-28 13:29:03 51°15.77 2°55.684 -999 -999 -999  
2002-02-28 13:30:03 51°15.771 2°55.682 -999 -999 -999  
2002-02-28 13:31:02 51°15.773 2°55.681 -999 -999 -999  
2002-02-28 13:32:03 51°15.774 2°55.681 -999 -999 -999  
2002-02-28 13:33:03 51°15.773 2°55.682 -999 -999 -999  
2002-02-28 13:34:03 51°15.772 2°55.684 -999 -999 -999  
2002-02-28 13:35:02 51°15.772 2°55.683 -999 -999 -999  
2002-02-28 13:36:03 51°15.771 2°55.683 -999 -999 -999  
2002-02-28 13:37:02 51°15.771 2°55.683 -999 -999 -999  
2002-02-28 13:38:03 51°15.77 2°55.684 -999 -999 -999  
2002-02-28 13:39:02 51°15.768 2°55.685 -999 -999 -999  
2002-02-28 13:40:03 51°15.77 2°55.684 -999 -999 -999  
2002-02-28 13:41:02 51°15.772 2°55.681 -999 -999 -999  
2002-02-28 13:42:03 51°15.773 2°55.682 -999 -999 -999  
2002-02-28 13:43:03 51°15.772 2°55.681 -999 -999 -999  
2002-02-28 13:44:03 51°15.773 2°55.681 -999 -999 -999  
2002-02-28 13:45:03 51°15.776 2°55.678 -999 -999 -999  
2002-02-28 13:46:03 51°15.778 2°55.675 -999 -999 -999  
2002-02-28 13:47:03 51°15.78 2°55.673 -999 -999 -999  
2002-02-28 13:48:03 51°15.778 2°55.677 -999 -999 -999  
2002-02-28 13:49:03 51°15.777 2°55.679 -999 -999 -999  
2002-02-28 13:50:03 51°15.78 2°55.674 -999 -999 -999  
2002-02-28 13:51:02 51°15.78 2°55.675 -999 -999 -999  
2002-02-28 13:52:03 51°15.777 2°55.677 -999 -999 -999  
2002-02-28 13:53:03 51°15.778 2°55.675 -999 -999 -999  
2002-02-28 13:54:03 51°15.782 2°55.671 -999 -999 -999  
2002-02-28 13:55:02 51°15.783 2°55.671 -999 -999 -999  
2002-02-28 13:56:03 51°15.781 2°55.673 -999 -999 -999  
2002-02-28 13:57:02 51°15.781 2°55.673 -999 -999 -999  
2002-02-28 13:58:03 51°15.781 2°55.672 -999 -999 -999  
2002-02-28 13:59:03 51°15.781 2°55.673 -999 -999 -999  
2002-02-28 14:00:02 51°15.782 2°55.671 -999 -999 -999  
2002-02-28 14:01:03 51°15.782 2°55.671 -999 -999 -999  
2002-02-28 14:02:02 51°15.78 2°55.674 -999 -999 -999  
2002-02-28 14:03:03 51°15.78 2°55.674 -999 -999 -999  
2002-02-28 14:04:03 51°15.782 2°55.672 -999 -999 -999  
2002-02-28 14:05:02 51°15.781 2°55.673 -999 -999 -999  
2002-02-28 14:06:02 51°15.779 2°55.676 -999 -999 -999  
2002-02-28 14:07:03 51°15.78 2°55.675 -999 -999 -999  
2002-02-28 14:08:02 51°15.782 2°55.67 -999 -999 -999  
2002-02-28 14:09:03 51°15.781 2°55.672 -999 -999 -999  
2002-02-28 14:10:03 51°15.782 2°55.671 -999 -999 -999  
2002-02-28 14:11:02 51°15.783 2°55.668 -999 -999 -999  
2002-02-28 14:12:03 51°15.784 2°55.668 -999 -999 -999  
2002-02-28 14:13:03 51°15.781 2°55.674 -999 -999 -999  
2002-02-28 14:14:02 51°15.777 2°55.678 -999 -999 -999  
2002-02-28 14:15:03 51°15.778 2°55.677 -999 -999 -999  
2002-02-28 14:16:03 51°15.781 2°55.672 -999 -999 -999  
2002-02-28 14:17:03 51°15.78 2°55.673 -999 -999 -999  
2002-02-28 14:18:02 51°15.78 2°55.674 -999 -999 -999  
2002-02-28 14:19:03 51°15.779 2°55.674 -999 -999 -999  
2002-02-28 14:20:03 51°15.779 2°55.674 -999 -999 -999  
2002-02-28 14:21:03 51°15.78 2°55.673 -999 -999 -999  
2002-02-28 14:22:02 51°15.781 2°55.672 -999 -999 -999  
2002-02-28 14:23:02 51°15.78 2°55.674 -999 -999 -999  
2002-02-28 14:24:03 51°15.776 2°55.677 -999 -999 -999  
2002-02-28 14:25:03 51°15.778 2°55.676 -999 -999 -999  
2002-02-28 14:26:02 51°15.78 2°55.674 -999 -999 -999  
2002-02-28 14:27:02 51°15.78 2°55.674 -999 -999 -999  
2002-02-28 14:28:03 51°15.778 2°55.674 -999 -999 -999  
2002-02-28 14:29:03 51°15.779 2°55.675 -999 -999 -999  
2002-02-28 14:30:02 51°15.781 2°55.673 -999 -999 -999  
2002-02-28 14:31:02 51°15.782 2°55.671 -999 -999 -999  
2002-02-28 14:32:03 51°15.779 2°55.674 -999 -999 -999  
2002-02-28 14:33:02 51°15.777 2°55.677 -999 -999 -999  
2002-02-28 14:34:03 51°15.78 2°55.672 -999 -999 -999  
2002-02-28 14:35:03 51°15.781 2°55.671 -999 -999 -999  
2002-02-28 14:36:03 51°15.78 2°55.673 -999 -999 -999  
2002-02-28 14:37:03 51°15.78 2°55.674 -999 -999 -999  
2002-02-28 14:38:03 51°15.78 2°55.673 -999 -999 -999  
2002-02-28 14:39:03 51°15.78 2°55.675 -999 -999 -999  
2002-02-28 14:40:02 51°15.777 2°55.677 -999 -999 -999  
2002-02-28 14:41:02 51°15.777 2°55.677 -999 -999 -999  
2002-02-28 14:42:02 51°15.778 2°55.676 -999 -999 -999  
2002-02-28 14:43:02 51°15.779 2°55.674 -999 -999 -999  
2002-02-28 14:44:03 51°15.779 2°55.674 -999 -999 -999  
2002-02-28 14:45:02 51°15.779 2°55.675 -999 -999 -999  
2002-02-28 14:46:03 51°15.778 2°55.675 -999 -999 -999  
2002-02-28 14:47:03 51°15.778 2°55.676 -999 -999 -999  
2002-02-28 14:48:02 51°15.777 2°55.677 -999 -999 -999  
2002-02-28 14:49:03 51°15.777 2°55.676 -999 -999 -999  
2002-02-28 14:50:03 51°15.779 2°55.674 -999 -999 -999  
2002-02-28 14:51:02 51°15.781 2°55.672 -999 -999 -999  
2002-02-28 14:52:03 51°15.778 2°55.677 -999 -999 -999  
2002-02-28 14:53:03 51°15.774 2°55.681 -999 -999 -999  
2002-02-28 14:54:03 51°15.774 2°55.68 -999 -999 -999  
2002-02-28 14:55:02 51°15.777 2°55.677 -999 -999 -999  
2002-02-28 14:56:02 51°15.779 2°55.675 -999 -999 -999  
2002-02-28 14:57:03 51°15.779 2°55.675 -999 -999 -999  
2002-02-28 14:58:03 51°15.779 2°55.675 -999 -999 -999  
2002-02-28 14:59:02 51°15.779 2°55.675 -999 -999 -999  
2002-02-28 15:00:02 51°15.78 2°55.674 -999 -999 -999  
2002-02-28 15:01:03 51°15.778 2°55.676 -999 -999 -999  
2002-02-28 15:02:03 51°15.778 2°55.676 -999 -999 -999  
2002-02-28 15:03:03 51°15.779 2°55.675 -999 -999 -999  
2002-02-28 15:04:03 51°15.78 2°55.676 -999 -999 -999  
2002-02-28 15:05:03 51°15.779 2°55.675 -999 -999 -999  
2002-02-28 15:06:03 51°15.781 2°55.674 -999 -999 -999  
2002-02-28 15:07:03 51°15.781 2°55.674 -999 -999 -999  
2002-02-28 15:08:03 51°15.781 2°55.672 -999 -999 -999  
2002-02-28 15:09:02 51°15.781 2°55.672 -999 -999 -999  
2002-02-28 15:10:03 51°15.779 2°55.676 -999 -999 -999  
2002-02-28 15:11:03 51°15.777 2°55.679 -999 -999 -999  
2002-02-28 15:12:03 51°15.776 2°55.68 -999 -999 -999  
2002-02-28 15:13:03 51°15.775 2°55.679 -999 -999 -999  
2002-02-28 15:14:03 51°15.776 2°55.678 -999 -999 -999  
2002-02-28 15:15:03 51°15.779 2°55.676 -999 -999 -999  
2002-02-28 15:16:02 51°15.78 2°55.674 -999 -999 -999  
2002-02-28 15:17:02 51°15.777 2°55.677 -999 -999 -999  
2002-02-28 15:18:02 51°15.775 2°55.68 -999 -999 -999  
2002-02-28 15:19:03 51°15.775 2°55.68 -999 -999 -999  
2002-02-28 15:20:02 51°15.776 2°55.678 -999 -999 -999  
2002-02-28 15:21:03 51°15.778 2°55.676 -999 -999 -999  
2002-02-28 15:22:03 51°15.779 2°55.675 -999 -999 -999  
2002-02-28 15:23:03 51°15.777 2°55.677 -999 -999 -999  
2002-02-28 15:24:02 51°15.777 2°55.678 -999 -999 -999  
2002-02-28 15:25:03 51°15.777 2°55.678 -999 -999 -999  
2002-02-28 15:26:03 51°15.776 2°55.679 -999 -999 -999  
2002-02-28 15:27:03 51°15.776 2°55.679 -999 -999 -999  
2002-02-28 15:28:03 51°15.776 2°55.679 -999 -999 -999  
2002-02-28 15:29:03 51°15.777 2°55.679 -999 -999 -999  
2002-02-28 15:30:02 51°15.776 2°55.678 -999 -999 -999  
2002-02-28 15:31:03 51°15.776 2°55.679 -999 -999 -999  
2002-02-28 15:32:03 51°15.774 2°55.68 -999 -999 -999  
2002-02-28 15:33:02 51°15.774 2°55.682 -999 -999 -999  
2002-02-28 15:34:03 51°15.776 2°55.679 -999 -999 -999  
2002-02-28 15:35:02 51°15.777 2°55.677 -999 -999 -999  
2002-02-28 15:36:02 51°15.778 2°55.676 -999 -999 -999  
2002-02-28 15:37:02 51°15.779 2°55.676 -999 -999 -999  
2002-02-28 15:38:03 51°15.779 2°55.676 -999 -999 -999  
2002-02-28 15:39:02 51°15.778 2°55.676 -999 -999 -999  
2002-02-28 15:40:03 51°15.778 2°55.676 -999 -999 -999  
2002-02-28 15:41:03 51°15.777 2°55.676 -999 -999 -999  
2002-02-28 15:42:02 51°15.779 2°55.675 -999 -999 -999  
2002-02-28 15:43:03 51°15.781 2°55.671 -999 -999 -999  
2002-02-28 15:44:03 51°15.782 2°55.671 -999 -999 -999  
2002-02-28 15:45:02 51°15.78 2°55.672 -999 -999 -999  
2002-02-28 15:46:03 51°15.778 2°55.676 -999 -999 -999  
2002-02-28 15:47:03 51°15.777 2°55.678 -999 -999 -999  
2002-02-28 15:48:03 51°15.778 2°55.675 -999 -999 -999  
2002-02-28 15:49:03 51°15.78 2°55.671 -999 -999 -999  
2002-02-28 15:50:02 51°15.782 2°55.668 -999 -999 -999  
2002-02-28 15:51:03 51°15.783 2°55.667 -999 -999 -999  
2002-02-28 15:52:03 51°15.783 2°55.669 -999 -999 -999  
2002-02-28 15:53:03 51°15.78 2°55.671 -999 -999 -999  
2002-02-28 15:54:03 51°15.78 2°55.673 -999 -999 -999  
2002-02-28 15:55:03 51°15.781 2°55.67 -999 -999 -999  
2002-02-28 15:56:02 51°15.783 2°55.664 -999 -999 -999  
2002-02-28 15:57:03 51°15.785 2°55.661 -999 -999 -999  
2002-02-28 15:58:03 51°15.784 2°55.666 -999 -999 -999  
2002-02-28 15:59:03 51°15.781 2°55.669 -999 -999 -999  
2002-02-28 16:00:02 51°15.781 2°55.673 -999 -999 -999  
2002-02-28 16:01:03 51°15.781 2°55.671 -999 -999 -999  
2002-02-28 16:02:03 51°15.782 2°55.666 -999 -999 -999  
2002-02-28 16:03:02 51°15.784 2°55.664 -999 -999 -999  
2002-02-28 16:04:03 51°15.785 2°55.662 -999 -999 -999  
2002-02-28 16:05:03 51°15.785 2°55.666 -999 -999 -999  
2002-02-28 16:06:03 51°15.782 2°55.67 -999 -999 -999  
2002-02-28 16:07:03 51°15.782 2°55.672 -999 -999 -999  
2002-02-28 16:08:03 51°15.78 2°55.673 -999 -999 -999  
2002-02-28 16:09:03 51°15.78 2°55.673 -999 -999 -999  
2002-02-28 16:10:03 51°15.781 2°55.673 -999 -999 -999  
2002-02-28 16:11:03 51°15.782 2°55.67 -999 -999 -999  
2002-02-28 16:12:02 51°15.782 2°55.669 -999 -999 -999  
2002-02-28 16:13:03 51°15.783 2°55.668 -999 -999 -999  
2002-02-28 16:14:03 51°15.783 2°55.668 -999 -999 -999  
2002-02-28 16:15:03 51°15.784 2°55.667 -999 -999 -999  
2002-02-28 16:16:03 51°15.783 2°55.668 -999 -999 -999  
2002-02-28 16:17:03 51°15.781 2°55.671 -999 -999 -999  
2002-02-28 16:18:03 51°15.781 2°55.672 -999 -999 -999  
2002-02-28 16:19:03 51°15.782 2°55.669 -999 -999 -999  
2002-02-28 16:20:03 51°15.784 2°55.664 -999 -999 -999  
2002-02-28 16:21:03 51°15.785 2°55.662 -999 -999 -999  
2002-02-28 16:22:03 51°15.784 2°55.665 -999 -999 -999  
2002-02-28 16:23:03 51°15.784 2°55.669 -999 -999 -999  
2002-02-28 16:24:03 51°15.782 2°55.67 -999 -999 -999  
2002-02-28 16:25:03 51°15.783 2°55.67 -999 -999 -999  
2002-02-28 16:26:03 51°15.783 2°55.667 -999 -999 -999  
2002-02-28 16:27:03 51°15.784 2°55.665 -999 -999 -999  
2002-02-28 16:28:03 51°15.785 2°55.663 -999 -999 -999  
2002-02-28 16:29:03 51°15.785 2°55.666 -999 -999 -999  
2002-02-28 16:30:02 51°15.785 2°55.665 -999 -999 -999  
2002-02-28 16:31:03 51°15.785 2°55.665 -999 -999 -999  
2002-02-28 16:32:03 51°15.785 2°55.665 -999 -999 -999  
2002-02-28 16:33:03 51°15.784 2°55.665 -999 -999 -999  
2002-02-28 16:34:03 51°15.785 2°55.665 -999 -999 -999  
2002-02-28 16:35:03 51°15.784 2°55.666 -999 -999 -999  
2002-02-28 16:36:03 51°15.785 2°55.667 -999 -999 -999  
2002-02-28 16:37:03 51°15.784 2°55.667 -999 -999 -999  
2002-02-28 16:38:03 51°15.783 2°55.668 -999 -999 -999  
2002-02-28 16:39:03 51°15.778 2°55.667 -999 -999 -999  
2002-02-28 16:40:03 51°15.764 2°55.658 -999 -999 -999  
2002-02-28 16:41:03 51°15.756 2°55.653 -999 -999 -999  
2002-02-28 16:42:03 51°15.751 2°55.649 -999 -999 -999  
2002-02-28 16:43:03 51°15.755 2°55.642 -999 -999 -999  
2002-02-28 16:44:03 51°15.765 2°55.64 -999 -999 -999  
2002-02-28 16:45:03 51°15.779 2°55.634 -999 -999 -999  
2002-02-28 16:46:03 51°15.719 2°55.527 -999 -999 -999  
2002-02-28 16:47:03 51°15.554 2°55.398 -999 -999 -999  
2002-02-28 16:48:03 51°15.357 2°55.267 -999 -999 -999  
2002-02-28 16:49:03 51°15.152 2°55.158 -999 -999 -999  
2002-02-28 16:50:03 51°14.943 2°55.059 -999 -999 -999  
2002-02-28 16:51:03 51°14.732 2°54.973 -999 -999 -999  
2002-02-28 16:52:02 51°14.519 2°54.95 -999 -999 -999  
2002-02-28 16:53:03 51°14.342 2°55.112 -999 -999 -999  
2002-02-28 16:54:03 51°14.221 2°55.32 -999 -999 -999  
2002-02-28 16:55:03 51°14.093 2°55.447 -999 -999 -999  
2002-02-28 16:56:07 51°14.011 2°55.495 -999 -999 -999  
2002-02-28 16:57:08 51°13.93 2°55.56 -999 -999 -999  
2002-02-28 16:58:08 51°13.824 2°55.646 -999 -999 -999  
2002-02-28 16:59:07 51°13.757 2°55.717 -999 -999 -999  
2002-02-28 17:00:08 51°13.722 2°55.785 -999 -999 -999  
2002-02-28 17:01:08 51°13.701 2°55.848 -999 -999 -999  
2002-02-28 17:02:07 51°13.689 2°55.902 -999 -999 -999  
2002-02-28 17:03:07 51°13.687 2°55.904 -999 -999 -999